Weather History for Quincy, IL

Change the Weather History Date:

Friday, August 29, 2014

  Actual Average Record
Temperature  
Mean Temperature 79 °F 73 °F  
Max Temperature 88 °F 83 °F 103 °F (1984)
Min Temperature 70 °F 62 °F 43 °F (1986)
Degree Days  
Heating Degree Days 0 0  
Month to date heating degree days 0 0  
Since 1 June heating degree days 9 16  
Since 1 July heating degree days 5 0  
Cooling Degree Days 14 8  
Month to date cooling degree days 295 282  
Year to date cooling degree days 903 938  
Since 1 June cooling degree days 760 852  
Growing Degree Days 29 (Base 50)    
Moisture  
Dew Point 69 °F    
Average Humidity 67    
Maximum Humidity 93    
Minimum Humidity 40    
Precipitation  
Precipitation 0.62 in 0.12 in 2.99 in (1955)
Month to date precipitation 6.12 3.40  
Year to date precipitation 25.57 25.52  
Sea Level Pressure  
Sea Level Pressure 29.87 in    
Wind  
Wind Speed 9 mph (South)    
Max Wind Speed 38 mph    
Max Gust Speed 45 mph    
Visibility 7 miles    
Events Fog , Rain , Thunderstorm    
T = Trace of Precipitation, MM = Missing Value Source: NWS Daily Summary

Daily Weather History Graph

Daily Weather History Graph

Search for Another Location

Airport:

Trip Planner

Search our weather history database for the weather conditions in past years. The results will help you decide how hot, cold, wet, or windy it might be!

Date:

Astronomy

Aug. 29, 2014 Rise Set
Actual Time 6:29 AM CDT 7:40 PM CDT
Civil Twilight 6:01 AM CDT 8:08 PM CDT
Nautical Twilight 5:28 AM CDT 8:41 PM CDT
Astronomical Twilight 4:53 AM CDT 9:16 PM CDT
Moon 10:19 AM CDT (8/29) 9:38 PM CDT (8/29)
Length of Visible Light 14h 06m
Length of Day
13h 11m
Waxing Crescent, 15% of the Moon is Illuminated
Aug 29
Waxing Crescent
Sep 2
First Quarter
Sep 8
Full
Sep 15
Last Quarter
Sep 24
New

Hourly Weather History & Observations

Time (CDT) Temp. Heat Index Dew Point Humidity Pressure Visibility Wind Dir Wind Speed Gust Speed Precip Events Conditions
12:54 AM 72.0 °F - 68.0 °F 87% 29.94 in 10.0 mi SE 9.2 mph - N/A   Clear
1:54 AM 72.0 °F - 68.0 °F 87% 29.92 in 8.0 mi SE 9.2 mph - N/A   Clear
2:54 AM 72.0 °F - 69.1 °F 91% 29.92 in 7.0 mi SE 8.1 mph - N/A   Scattered Clouds
3:54 AM 72.0 °F - 69.1 °F 91% 29.91 in 7.0 mi SSE 5.8 mph - N/A   Clear
4:54 AM 71.1 °F - 69.1 °F 93% 29.91 in 5.0 mi SSE 6.9 mph - N/A   Clear
5:54 AM 71.1 °F - 69.1 °F 93% 29.91 in 4.0 mi SSE 6.9 mph - N/A   Clear
6:39 AM 70.0 °F - 69.1 °F 97% 29.92 in 2.5 mi SSE 5.8 mph - N/A   Clear
6:54 AM 71.1 °F - 69.1 °F 93% 29.92 in 2.5 mi SSE 4.6 mph - N/A   Clear
7:45 AM 72.0 °F - 70.0 °F 93% 29.94 in 3.0 mi SSE 6.9 mph - N/A   Clear
7:54 AM 73.0 °F - 70.0 °F 90% 29.93 in 4.0 mi South 6.9 mph - N/A   Clear
8:54 AM 75.9 °F - 69.1 °F 79% 29.92 in 8.0 mi South 10.4 mph - N/A   Clear
9:54 AM 80.1 °F 83.2 °F 70.0 °F 71% 29.92 in 10.0 mi South 8.1 mph - N/A   Clear
10:54 AM 82.9 °F 87.0 °F 70.0 °F 65% 29.91 in 10.0 mi South 12.7 mph - N/A   Clear
11:54 AM 86.0 °F 89.4 °F 68.0 °F 55% 29.89 in 10.0 mi South 12.7 mph - N/A   Clear
12:54 PM 87.1 °F 88.9 °F 64.9 °F 48% 29.87 in 10.0 mi South 11.5 mph - N/A   Clear
1:54 PM 87.1 °F 87.0 °F 61.0 °F 41% 29.85 in 10.0 mi South 12.7 mph - N/A   Clear
2:54 PM 88.0 °F 89.3 °F 64.0 °F 45% 29.83 in 10.0 mi SSE 12.7 mph - N/A   Clear
3:54 PM 86.0 °F 87.6 °F 64.9 °F 49% 29.80 in 10.0 mi SSE 10.4 mph - N/A   Scattered Clouds
4:54 PM 84.0 °F 87.0 °F 68.0 °F 58% 29.80 in 10.0 mi SSE 6.9 mph - N/A   Clear
5:05 PM 82.9 °F 86.5 °F 69.1 °F 63% 29.83 in 10.0 mi South 6.9 mph - N/A Thunderstorm Clear
5:14 PM 73.0 °F - 68.0 °F 84% 29.85 in 2.5 mi WSW 35.7 mph 44.9 mph 0.02 in Rain , Thunderstorm Light Thunderstorms and Rain
5:16 PM 72.0 °F - 68.0 °F 87% 29.86 in 0.8 mi WSW 35.7 mph 44.9 mph 0.10 in Rain , Thunderstorm Thunderstorms and Rain
5:21 PM 70.0 °F - 68.0 °F 93% 29.85 in 0.2 mi WSW 23.0 mph 43.7 mph 0.41 in Fog , Rain , Thunderstorm Heavy Thunderstorms and Rain
5:30 PM 72.0 °F - 68.0 °F 87% 29.84 in 0.5 mi WSW 10.4 mph 21.9 mph 0.61 in Fog , Rain , Thunderstorm Thunderstorms and Rain
5:35 PM 72.0 °F - 69.1 °F 91% 29.84 in 3.0 mi SW 6.9 mph - 0.61 in Rain , Thunderstorm Light Thunderstorms and Rain
5:54 PM 73.0 °F - 70.0 °F 90% 29.83 in 7.0 mi South 9.2 mph - 0.62 in Rain , Thunderstorm Light Rain
6:23 PM 75.0 °F - 71.1 °F 87% 29.83 in 10.0 mi SE 8.1 mph - 0.00 in   Mostly Cloudy
6:54 PM 73.0 °F - 71.1 °F 93% 29.82 in 10.0 mi SE 4.6 mph - 0.00 in   Mostly Cloudy
7:54 PM 72.0 °F - 70.0 °F 93% 29.82 in 8.0 mi SSE 6.9 mph - 0.00 in   Clear
8:54 PM 73.0 °F - 70.0 °F 90% 29.84 in 9.0 mi South 8.1 mph - N/A   Partly Cloudy
9:54 PM 72.0 °F - 70.0 °F 93% 29.85 in 8.0 mi South 9.2 mph - N/A   Clear
10:54 PM 72.0 °F - 70.0 °F 93% 29.85 in 9.0 mi South 9.2 mph - N/A   Clear
11:54 PM 72.0 °F - 69.1 °F 91% 29.85 in 8.0 mi SSW 9.2 mph - N/A   Clear